owner,sensor,date,latitude,longitude,vertical_datum,direction_of_sea_water_velocity,sea_water_speed,upward_sea_water_velocity,qcFlag 
TABS,ioos:station:wmo:42045:1,1998-10-01T00:00:00Z,26.2168,-96.4998,2.0,0.0,0.0,-99999.0,'11133222,11111222,99999999' 
TABS,ioos:station:wmo:42045:1,1998-10-15T02:30:00Z,26.2168,-96.4998,2.0,7.863977185,13.08303099,-99999.0,'11111222,11111222,99999999' 
TABS,ioos:station:wmo:42045:1,1998-10-15T03:00:00Z,26.2168,-96.4998,2.0,17.54995819,11.87260713,-99999.0,'11111222,11111222,99999999' 
TABS,ioos:station:wmo:42045:1,1998-10-15T03:30:00Z,26.2168,-96.4998,2.0,35.98692195,11.41935637,-99999.0,'11111222,11111222,99999999' 
TABS,ioos:station:wmo:42045:1,1998-10-15T04:00:00Z,26.2168,-96.4998,2.0,27.28338471,11.06046111,-99999.0,'11111222,11111222,99999999' 
TABS,ioos:station:wmo:42045:1,1998-10-15T04:30:00Z,26.2168,-96.4998,2.0,86.28471958,9.259460027,-99999.0,'11133222,11111222,99999999' 
TABS,ioos:station:wmo:42045:1,1998-10-15T05:00:00Z,26.2168,-96.4998,2.0,70.91671445,12.29572283,-99999.0,'11111222,11111222,99999999' 
TABS,ioos:station:wmo:42045:1,1998-10-15T05:30:00Z,26.2168,-96.4998,2.0,73.63549488,11.6416193,-99999.0,'11111222,11111222,99999999' 
TABS,ioos:station:wmo:42045:1,1998-10-15T06:00:00Z,26.2168,-96.4998,2.0,59.31977996,11.09266424,-99999.0,'11111222,11111222,99999999' 
TABS,ioos:station:wmo:42045:1,1998-10-15T06:30:00Z,26.2168,-96.4998,2.0,95.68519684,8.984191672,-99999.0,'11133222,11111222,99999999' 
TABS,ioos:station:wmo:42045:1,1998-10-15T07:00:00Z,26.2168,-96.4998,2.0,86.09509169,8.810454018,-99999.0,'11133222,11111222,99999999' 
TABS,ioos:station:wmo:42045:1,1998-10-15T07:30:00Z,26.2168,-96.4998,2.0,109.7852122,7.917379617,-99999.0,'11133222,11111222,99999999' 
TABS,ioos:station:wmo:42045:1,1998-10-15T08:00:00Z,26.2168,-96.4998,2.0,78.0517683,7.921622309,-99999.0,'11133222,11111222,99999999' 
TABS,ioos:station:wmo:42045:1,1998-10-15T08:30:00Z,26.2168,-96.4998,2.0,71.22201069,7.393537719,-99999.0,'11133222,11111222,99999999' 
TABS,ioos:station:wmo:42045:1,1998-10-15T09:00:00Z,26.2168,-96.4998,2.0,87.78321084,7.755804278,-99999.0,'11133222,11111222,99999999' 
TABS,ioos:station:wmo:42045:1,1998-10-15T09:30:00Z,26.2168,-96.4998,2.0,90.0,8.34,-99999.0,'11133222,11111222,99999999' 
TABS,ioos:station:wmo:42045:1,1998-10-15T10:00:00Z,26.2168,-96.4998,2.0,76.5359376,7.043585735,-99999.0,'11133222,11111222,99999999' 
TABS,ioos:station:wmo:42045:1,1998-10-15T10:30:00Z,26.2168,-96.4998,2.0,34.16318498,5.039623002,-99999.0,'11133222,11111222,99999999' 
TABS,ioos:station:wmo:42045:1,1998-10-15T11:00:00Z,26.2168,-96.4998,2.0,52.22827824,5.844724117,-99999.0,'11133222,11111222,99999999' 
TABS,ioos:station:wmo:42045:1,1998-10-15T11:30:00Z,26.2168,-96.4998,2.0,51.30903282,5.7268927,-99999.0,'11133222,11111222,99999999' 
TABS,ioos:station:wmo:42045:1,1998-10-15T12:00:00Z,26.2168,-96.4998,2.0,75.57631344,5.379563179,-99999.0,'11133222,11111222,99999999' 
TABS,ioos:station:wmo:42045:1,1998-10-15T12:30:00Z,26.2168,-96.4998,2.0,99.95637357,5.147523676,-99999.0,'11133222,11111222,99999999' 
TABS,ioos:station:wmo:42045:1,1998-10-15T13:00:00Z,26.2168,-96.4998,2.0,78.70651577,6.842492236,-99999.0,'11133222,11111222,99999999' 
TABS,ioos:station:wmo:42045:1,1998-10-15T13:30:00Z,26.2168,-96.4998,2.0,244.2358755,9.593669788,-99999.0,'11133222,11111222,99999999' 
TABS,ioos:station:wmo:42045:1,1998-10-15T14:00:00Z,26.2168,-96.4998,2.0,64.73503432,9.067353528,-99999.0,'11133222,11111222,99999999' 
TABS,ioos:station:wmo:42045:1,1998-10-15T14:30:00Z,26.2168,-96.4998,2.0,90.0,6.11,-99999.0,'11133222,11111222,99999999' 
TABS,ioos:station:wmo:42045:1,1998-10-15T15:00:00Z,26.2168,-96.4998,2.0,111.6525687,9.295939974,-99999.0,'11133222,11111222,99999999' 
TABS,ioos:station:wmo:42045:1,1998-10-15T15:30:00Z,26.2168,-96.4998,2.0,117.6527504,7.067248404,-99999.0,'11133222,11111222,99999999' 
TABS,ioos:station:wmo:42045:1,1998-10-15T16:00:00Z,26.2168,-96.4998,2.0,105.5533287,9.435518004,-99999.0,'11133222,11111222,99999999' 
TABS,ioos:station:wmo:42045:1,1998-10-15T16:30:00Z,26.2168,-96.4998,2.0,125.2489158,4.383754099,-99999.0,'11133222,11111222,99999999' 
TABS,ioos:station:wmo:42045:1,1998-10-15T17:00:00Z,26.2168,-96.4998,2.0,94.81217703,8.821094036,-99999.0,'11133222,11111222,99999999' 
TABS,ioos:station:wmo:42045:1,1998-10-15T17:30:00Z,26.2168,-96.4998,2.0,99.7436185,14.06285888,-99999.0,'11111222,11111222,99999999' 
TABS,ioos:station:wmo:42045:1,1998-10-15T18:00:00Z,26.2168,-96.4998,2.0,88.01136679,12.96781015,-99999.0,'11111222,11111222,99999999' 
TABS,ioos:station:wmo:42045:1,1998-10-15T18:30:00Z,26.2168,-96.4998,2.0,93.88367687,13.14017504,-99999.0,'11111222,11111222,99999999' 
TABS,ioos:station:wmo:42045:1,1998-10-15T19:00:00Z,26.2168,-96.4998,2.0,95.25311583,9.720828154,-99999.0,'11133222,11111222,99999999' 
TABS,ioos:station:wmo:42045:1,1998-10-15T19:30:00Z,26.2168,-96.4998,2.0,102.9485436,9.327175349,-99999.0,'11133222,11111222,99999999' 
TABS,ioos:station:wmo:42045:1,1998-10-15T20:00:00Z,26.2168,-96.4998,2.0,94.86450306,12.26417547,-99999.0,'11111222,11111222,99999999' 
TABS,ioos:station:wmo:42045:1,1998-10-15T20:30:00Z,26.2168,-96.4998,2.0,56.98717604,6.570882741,-99999.0,'11133222,11111222,99999999' 
TABS,ioos:station:wmo:42045:1,1998-10-15T21:00:00Z,26.2168,-96.4998,2.0,72.12496877,4.854327966,-99999.0,'11133222,11111222,99999999' 
TABS,ioos:station:wmo:42045:1,1998-10-15T21:30:00Z,26.2168,-96.4998,2.0,74.74984902,10.18878305,-99999.0,'11111222,11111222,99999999' 
TABS,ioos:station:wmo:42045:1,1998-10-15T22:00:00Z,26.2168,-96.4998,2.0,70.07446594,16.16787246,-99999.0,'11111222,11111222,99999999' 
TABS,ioos:station:wmo:42045:1,1998-10-16T01:00:00Z,26.2168,-96.4998,2.0,33.99526465,25.00346576,-99999.0,'11111222,11111222,99999999' 
TABS,ioos:station:wmo:42045:1,1998-10-16T09:00:00Z,26.2168,-96.4998,2.0,54.98829599,18.99798937,-99999.0,'11111222,11111222,99999999' 
TABS,ioos:station:wmo:42045:1,1998-10-16T09:30:00Z,26.2168,-96.4998,2.0,53.99266446,19.00015263,-99999.0,'11111222,11111222,99999999' 
TABS,ioos:station:wmo:42045:1,1998-10-16T10:00:00Z,26.2168,-96.4998,2.0,54.98829599,18.99798937,-99999.0,'11111222,11111222,99999999' 
TABS,ioos:station:wmo:42045:1,1998-10-16T10:30:00Z,26.2168,-96.4998,2.0,59.99934237,19.99956,-99999.0,'11111222,11111222,99999999' 
TABS,ioos:station:wmo:42045:1,1998-10-16T11:00:00Z,26.2168,-96.4998,2.0,57.00143575,19.99562452,-99999.0,'11111222,11111222,99999999' 
TABS,ioos:station:wmo:42045:1,1998-10-16T11:30:00Z,26.2168,-96.4998,2.0,52.00700082,19.99784238,-99999.0,'11111222,11111222,99999999' 
TABS,ioos:station:wmo:42045:1,1998-10-16T12:00:00Z,26.2168,-96.4998,2.0,213.9937678,23.00096737,-99999.0,'11111222,11111222,99999999' 
TABS,ioos:station:wmo:42045:1,1998-10-16T12:30:00Z,26.2168,-96.4998,2.0,52.0006846,21.00208085,-99999.0,'11111222,11111222,99999999' 
TABS,ioos:station:wmo:42045:1,1998-10-16T13:00:00Z,26.2168,-96.4998,2.0,54.00201154,23.00266289,-99999.0,'11111222,11111222,99999999' 
TABS,ioos:station:wmo:42045:1,1998-10-16T13:30:00Z,26.2168,-96.4998,2.0,336.0219105,10.99924543,-99999.0,'11111222,11111222,99999999' 
TABS,ioos:station:wmo:42045:1,1998-10-16T14:00:00Z,26.2168,-96.4998,2.0,66.00432409,41.99980119,-99999.0,'11111222,11111222,99999999' 
TABS,ioos:station:wmo:42045:1,1998-10-16T14:30:00Z,26.2168,-96.4998,2.0,46.01308574,17.99868051,-99999.0,'11111222,11111222,99999999' 
TABS,ioos:station:wmo:42045:1,1998-10-16T15:00:00Z,26.2168,-96.4998,2.0,33.99357724,21.99971818,-99999.0,'11111222,11111222,99999999' 
TABS,ioos:station:wmo:42045:1,1998-10-16T16:30:00Z,26.2168,-96.4998,2.0,36.00021997,105.0040994,-99999.0,'11111222,11111222,99999999' 
TABS,ioos:station:wmo:42045:1,1998-10-16T17:00:00Z,26.2168,-96.4998,2.0,33.99526465,25.00346576,-99999.0,'11111222,11111222,99999999' 
TABS,ioos:station:wmo:42045:1,1998-10-16T17:30:00Z,26.2168,-96.4998,2.0,42.99326219,20.99980952,-99999.0,'11111222,11111222,99999999' 
TABS,ioos:station:wmo:42045:1,1998-10-16T18:00:00Z,26.2168,-96.4998,2.0,39.0073299,16.99982647,-99999.0,'11111222,11111222,99999999' 
TABS,ioos:station:wmo:42045:1,1998-10-16T18:30:00Z,26.2168,-96.4998,2.0,57.99469163,25.00005,-99999.0,'11111222,11111222,99999999' 
TABS,ioos:station:wmo:42045:1,1998-10-16T19:00:00Z,26.2168,-96.4998,2.0,48.01761774,17.99961111,-99999.0,'11111222,11111222,99999999' 
TABS,ioos:station:wmo:42045:1,1998-10-16T19:30:00Z,26.2168,-96.4998,2.0,51.99228523,13.99876066,-99999.0,'11111222,11111222,99999999' 
TABS,ioos:station:wmo:42045:1,1998-10-16T20:00:00Z,26.2168,-96.4998,2.0,49.02591998,13.99990357,-99999.0,'11111222,11111222,99999999' 
TABS,ioos:station:wmo:42045:1,1998-10-16T20:30:00Z,26.2168,-96.4998,2.0,24.99540974,15.99836242,-99999.0,'11111222,11111222,99999999' 
TABS,ioos:station:wmo:42045:1,1998-10-16T21:00:00Z,26.2168,-96.4998,2.0,30.99664743,18.00049444,-99999.0,'11111222,11111222,99999999' 
TABS,ioos:station:wmo:42045:1,1998-10-16T21:30:00Z,26.2168,-96.4998,2.0,50.98788733,15.997181,-99999.0,'11111222,11111222,99999999' 
TABS,ioos:station:wmo:42045:1,1998-10-16T22:00:00Z,26.2168,-96.4998,2.0,50.98683075,19.9999925,-99999.0,'11111222,11111222,99999999' 
TABS,ioos:station:wmo:42045:1,1998-10-16T22:30:00Z,26.2168,-96.4998,2.0,57.99216091,23.99835203,-99999.0,'11111222,11111222,99999999' 
TABS,ioos:station:wmo:42045:1,1998-10-16T23:00:00Z,26.2168,-96.4998,2.0,45.00010523,36.0058773,-99999.0,'11111222,11111222,99999999' 
TABS,ioos:station:wmo:42045:1,1998-10-16T23:30:00Z,26.2168,-96.4998,2.0,45.99195709,29.00279469,-99999.0,'11111222,11111222,99999999' 
TABS,ioos:station:wmo:42045:1,1998-10-17T00:00:00Z,26.2168,-96.4998,2.0,57.00374185,41.00367057,-99999.0,'11111222,11111222,99999999' 
TABS,ioos:station:wmo:42045:1,1998-10-17T05:30:00Z,26.2168,-96.4998,2.0,49.00041013,21.99511082,-99999.0,'11111222,11111222,99999999' 
TABS,ioos:station:wmo:42045:1,1998-10-17T06:00:00Z,26.2168,-96.4998,2.0,51.00171914,22.9938644,-99999.0,'11111222,11111222,99999999' 
TABS,ioos:station:wmo:42045:1,1998-10-17T06:30:00Z,26.2168,-96.4998,2.0,54.99526004,21.99965454,-99999.0,'11111222,11111222,99999999' 
TABS,ioos:station:wmo:42045:1,1998-10-17T07:00:00Z,26.2168,-96.4998,2.0,51.989011,24.0007604,-99999.0,'11111222,11111222,99999999' 
TABS,ioos:station:wmo:42045:1,1998-10-17T07:30:00Z,26.2168,-96.4998,2.0,54.99526004,21.99965454,-99999.0,'11111222,11111222,99999999' 
TABS,ioos:station:wmo:42045:1,1998-10-17T08:00:00Z,26.2168,-96.4998,2.0,56.99107918,20.99965952,-99999.0,'11111222,11111222,99999999' 
TABS,ioos:station:wmo:42045:1,1998-10-17T08:30:00Z,26.2168,-96.4998,2.0,51.99399383,22.99652148,-99999.0,'11111222,11111222,99999999' 
TABS,ioos:station:wmo:42045:1,1998-10-17T09:00:00Z,26.2168,-96.4998,2.0,43.00618527,24.99721785,-99999.0,'11111222,11111222,99999999' 
TABS,ioos:station:wmo:42045:1,1998-10-17T09:30:00Z,26.2168,-96.4998,2.0,49.00604702,25.00073799,-99999.0,'11111222,11111222,99999999' 
TABS,ioos:station:wmo:42045:1,1998-10-17T10:00:00Z,26.2168,-96.4998,2.0,50.99888555,26.99667572,-99999.0,'11111222,11111222,99999999' 
TABS,ioos:station:wmo:42045:1,1998-10-17T10:30:00Z,26.2168,-96.4998,2.0,49.00980724,26.99978704,-99999.0,'11111222,11111222,99999999' 
TABS,ioos:station:wmo:42045:1,1998-10-17T16:30:00Z,26.2168,-96.4998,2.0,33.99418868,46.00193474,-99999.0,'11111222,11111222,99999999' 
TABS,ioos:station:wmo:42045:1,1998-10-17T17:00:00Z,26.2168,-96.4998,2.0,48.00694349,43.00179647,-99999.0,'11111222,11111222,99999999' 
TABS,ioos:station:wmo:42045:1,1998-10-17T17:30:00Z,26.2168,-96.4998,2.0,49.00103536,44.99679989,-99999.0,'11111222,11111222,99999999' 
TABS,ioos:station:wmo:42045:1,1998-10-17T18:00:00Z,26.2168,-96.4998,2.0,51.99841665,47.99536332,-99999.0,'11111222,11111222,99999999' 
TABS,ioos:station:wmo:42045:1,1998-10-17T18:30:00Z,26.2168,-96.4998,2.0,60.00285005,49.00411819,-99999.0,'11111222,11111222,99999999' 
TABS,ioos:station:wmo:42045:1,1998-10-17T19:00:00Z,26.2168,-96.4998,2.0,60.99995713,47.99805517,-99999.0,'11111222,11111222,99999999' 
TABS,ioos:station:wmo:42045:1,1998-10-17T19:30:00Z,26.2168,-96.4998,2.0,64.00090183,47.99730409,-99999.0,'11111222,11111222,99999999' 
TABS,ioos:station:wmo:42045:1,1998-10-17T20:00:00Z,26.2168,-96.4998,2.0,77.99716114,54.00060463,-99999.0,'11111222,11111222,99999999' 
TABS,ioos:station:wmo:42045:1,1998-10-17T20:30:00Z,26.2168,-96.4998,2.0,90.0,53.0,-99999.0,'11111222,11111222,99999999' 
TABS,ioos:station:wmo:42045:1,1998-10-17T21:00:00Z,26.2168,-96.4998,2.0,81.99528986,52.99636591,-99999.0,'11111222,11111222,99999999' 
TABS,ioos:station:wmo:42045:1,1998-10-17T21:30:00Z,26.2168,-96.4998,2.0,87.00169706,52.00118556,-99999.0,'11111222,11111222,99999999' 
TABS,ioos:station:wmo:42045:1,1998-10-17T22:00:00Z,26.2168,-96.4998,2.0,85.00102328,56.00302224,-99999.0,'11111222,11111222,99999999' 
TABS,ioos:station:wmo:42045:1,1998-10-17T22:30:00Z,26.2168,-96.4998,2.0,79.00129237,51.99507669,-99999.0,'11111222,11111222,99999999' 
TABS,ioos:station:wmo:42045:1,1998-10-17T23:00:00Z,26.2168,-96.4998,2.0,95.9968676,46.99718821,-99999.0,'11111222,11111222,99999999' 
TABS,ioos:station:wmo:42045:1,1998-10-17T23:30:00Z,26.2168,-96.4998,2.0,102.0066802,29.99621976,-99999.0,'11111222,11111222,99999999' 
TABS,ioos:station:wmo:42045:1,1998-10-18T00:00:00Z,26.2168,-96.4998,2.0,99.00087933,58.99648973,-99999.0,'11111222,11111222,99999999' 
TABS,ioos:station:wmo:42045:1,1998-10-18T00:30:00Z,26.2168,-96.4998,2.0,100.005882,48.00008854,-99999.0,'11111222,11111222,99999999' 
TABS,ioos:station:wmo:42045:1,1998-10-18T01:00:00Z,26.2168,-96.4998,2.0,105.0060016,45.99861954,-99999.0,'11111222,11111222,99999999' 
TABS,ioos:station:wmo:42045:1,1998-10-18T16:30:00Z,26.2168,-96.4998,2.0,79.00708465,28.00385152,-99999.0,'11111222,11111222,99999999' 
TABS,ioos:station:wmo:42045:1,1998-10-18T17:00:00Z,26.2168,-96.4998,2.0,81.99767636,26.00320942,-99999.0,'11111222,11111222,99999999' 
TABS,ioos:station:wmo:42045:1,1998-10-18T17:30:00Z,26.2168,-96.4998,2.0,71.99545475,31.99682797,-99999.0,'11111222,11111222,99999999' 
TABS,ioos:station:wmo:42045:1,1998-10-18T18:00:00Z,26.2168,-96.4998,2.0,84.00788015,31.99481208,-99999.0,'11111222,11111222,99999999' 
TABS,ioos:station:wmo:42045:1,1998-10-18T18:30:00Z,26.2168,-96.4998,2.0,83.99918695,44.00110908,-99999.0,'11111222,11111222,99999999' 
TABS,ioos:station:wmo:42045:1,1998-10-18T19:00:00Z,26.2168,-96.4998,2.0,90.0,41.0,-99999.0,'11111222,11111222,99999999' 
TABS,ioos:station:wmo:42045:1,1998-10-18T19:30:00Z,26.2168,-96.4998,2.0,87.994039,41.9957355,-99999.0,'11111222,11111222,99999999' 
TABS,ioos:station:wmo:42045:1,1998-10-18T20:00:00Z,26.2168,-96.4998,2.0,90.99529672,37.99573266,-99999.0,'11111222,11111222,99999999' 
TABS,ioos:station:wmo:42045:1,1998-10-18T20:30:00Z,26.2168,-96.4998,2.0,90.99598972,41.99634508,-99999.0,'11111222,11111222,99999999' 
TABS,ioos:station:wmo:42045:1,1998-10-18T21:00:00Z,26.2168,-96.4998,2.0,87.00227786,47.99567689,-99999.0,'11111222,11111222,99999999' 
TABS,ioos:station:wmo:42045:1,1998-10-18T21:30:00Z,26.2168,-96.4998,2.0,81.9985262,63.00337293,-99999.0,'11111222,11111222,99999999' 
TABS,ioos:station:wmo:42045:1,1998-10-18T22:00:00Z,26.2168,-96.4998,2.0,126.0084065,29.00127756,-99999.0,'11111222,11111222,99999999' 
TABS,ioos:station:wmo:42045:1,1998-10-18T22:30:00Z,26.2168,-96.4998,2.0,90.99973742,46.99715417,-99999.0,'11111222,11111222,99999999' 
TABS,ioos:station:wmo:42045:1,1998-10-18T23:00:00Z,26.2168,-96.4998,2.0,114.9975148,42.99778832,-99999.0,'11111222,11111222,99999999' 
TABS,ioos:station:wmo:42045:1,1998-10-18T23:30:00Z,26.2168,-96.4998,2.0,109.0060706,45.99761407,-99999.0,'11111222,11111222,99999999' 
TABS,ioos:station:wmo:42045:1,1998-10-19T00:00:00Z,26.2168,-96.4998,2.0,96.00182074,46.00215865,-99999.0,'11111222,11111222,99999999' 
TABS,ioos:station:wmo:42045:1,1998-10-19T00:30:00Z,26.2168,-96.4998,2.0,99.00563204,45.99700969,-99999.0,'11111222,11111222,99999999' 
TABS,ioos:station:wmo:42045:1,1998-10-19T01:00:00Z,26.2168,-96.4998,2.0,101.9964143,45.99449641,-99999.0,'11111222,11111222,99999999' 
TABS,ioos:station:wmo:42045:1,1998-10-19T05:00:00Z,26.2168,-96.4998,2.0,124.0036479,37.99753281,-99999.0,'11111222,11111222,99999999' 
TABS,ioos:station:wmo:42045:1,1998-10-19T05:30:00Z,26.2168,-96.4998,2.0,136.0014255,36.00430669,-99999.0,'11111222,11111222,99999999' 
TABS,ioos:station:wmo:42045:1,1998-10-19T06:00:00Z,26.2168,-96.4998,2.0,140.9926701,33.99965294,-99999.0,'11111222,11111222,99999999' 
TABS,ioos:station:wmo:42045:1,1998-10-19T06:30:00Z,26.2168,-96.4998,2.0,137.9971871,32.99631495,-99999.0,'11111222,11111222,99999999' 
TABS,ioos:station:wmo:42045:1,1998-10-19T07:00:00Z,26.2168,-96.4998,2.0,140.9965733,30.99948709,-99999.0,'11111222,11111222,99999999' 
TABS,ioos:station:wmo:42045:1,1998-10-19T07:30:00Z,26.2168,-96.4998,2.0,141.9952299,31.00408038,-99999.0,'11111222,11111222,99999999' 
TABS,ioos:station:wmo:42045:1,1998-10-19T08:00:00Z,26.2168,-96.4998,2.0,140.9965733,30.99948709,-99999.0,'11111222,11111222,99999999' 
TABS,ioos:station:wmo:42045:1,1998-10-19T08:30:00Z,26.2168,-96.4998,2.0,134.9998948,29.00552016,-99999.0,'11111222,11111222,99999999' 
TABS,ioos:station:wmo:42045:1,1998-10-19T09:00:00Z,26.2168,-96.4998,2.0,124.0078368,26.99767397,-99999.0,'11111222,11111222,99999999' 
TABS,ioos:station:wmo:42045:1,1998-10-19T09:30:00Z,26.2168,-96.4998,2.0,116.9887365,26.00170956,-99999.0,'11111222,11111222,99999999' 
TABS,ioos:station:wmo:42045:1,1998-10-19T10:00:00Z,26.2168,-96.4998,2.0,108.0073883,25.00482553,-99999.0,'11111222,11111222,99999999' 
TABS,ioos:station:wmo:42045:1,1998-10-19T10:30:00Z,26.2168,-96.4998,2.0,105.0038288,27.00049074,-99999.0,'11111222,11111222,99999999' 
TABS,ioos:station:wmo:42045:1,1998-10-19T11:00:00Z,26.2168,-96.4998,2.0,102.9916249,29.00237921,-99999.0,'11111222,11111222,99999999' 
TABS,ioos:station:wmo:42045:1,1998-10-19T11:30:00Z,26.2168,-96.4998,2.0,107.9948755,27.99963214,-99999.0,'11111222,11111222,99999999' 
TABS,ioos:station:wmo:42045:1,1998-10-19T12:00:00Z,26.2168,-96.4998,2.0,133.0059748,24.99721785,-99999.0,'11111222,11111222,99999999' 
TABS,ioos:station:wmo:42045:1,1998-10-19T12:30:00Z,26.2168,-96.4998,2.0,131.9891421,21.00177612,-99999.0,'11111222,11111222,99999999' 
TABS,ioos:station:wmo:42045:1,1998-10-19T13:00:00Z,26.2168,-96.4998,2.0,141.9978271,17.00531976,-99999.0,'11111222,11111222,99999999' 
TABS,ioos:station:wmo:42045:1,1998-10-19T13:30:00Z,26.2168,-96.4998,2.0,130.0108642,20.00204989,-99999.0,'11111222,11111222,99999999' 
TABS,ioos:station:wmo:42045:1,1998-10-20T05:00:00Z,26.2168,-96.4998,2.0,195.9937095,46.99930744,-99999.0,'11111222,11111222,99999999' 
TABS,ioos:station:wmo:42045:1,1998-10-20T05:30:00Z,26.2168,-96.4998,2.0,201.0004499,38.00440501,-99999.0,'11111222,11111222,99999999' 
TABS,ioos:station:wmo:42045:1,1998-10-20T06:00:00Z,26.2168,-96.4998,2.0,217.0056835,47.99813538,-99999.0,'11111222,11111222,99999999' 
TABS,ioos:station:wmo:42045:1,1998-10-20T06:30:00Z,26.2168,-96.4998,2.0,232.0058196,52.00000481,-99999.0,'11111222,11111222,99999999' 
TABS,ioos:station:wmo:42045:1,1998-10-20T07:00:00Z,26.2168,-96.4998,2.0,235.0023274,53.00430549,-99999.0,'11111222,11111222,99999999' 
TABS,ioos:station:wmo:42045:1,1998-10-20T07:30:00Z,26.2168,-96.4998,2.0,239.9989215,54.99878999,-99999.0,'11111222,11111222,99999999' 
TABS,ioos:station:wmo:42045:1,1998-10-20T08:00:00Z,26.2168,-96.4998,2.0,240.9972806,49.00527727,-99999.0,'11111222,11111222,99999999' 
TABS,ioos:station:wmo:42045:1,1998-10-20T08:30:00Z,26.2168,-96.4998,2.0,240.0028277,44.00422821,-99999.0,'11111222,11111222,99999999' 
TABS,ioos:station:wmo:42045:1,1998-10-20T09:00:00Z,26.2168,-96.4998,2.0,237.9942707,40.00008,-99999.0,'11111222,11111222,99999999' 
TABS,ioos:station:wmo:42045:1,1998-10-20T09:30:00Z,26.2168,-96.4998,2.0,240.0004292,38.00089604,-99999.0,'11111222,11111222,99999999' 
TABS,ioos:station:wmo:42045:1,1998-10-20T10:00:00Z,26.2168,-96.4998,2.0,237.9942707,35.00007,-99999.0,'11111222,11111222,99999999' 
TABS,ioos:station:wmo:42045:1,1998-10-20T10:30:00Z,26.2168,-96.4998,2.0,244.0056241,35.00067428,-99999.0,'11111222,11111222,99999999' 
TABS,ioos:station:wmo:42045:1,1998-10-20T11:00:00Z,26.2168,-96.4998,2.0,246.0061221,30.00246823,-99999.0,'11111222,11111222,99999999' 
TABS,ioos:station:wmo:42045:1,1998-10-20T11:30:00Z,26.2168,-96.4998,2.0,247.0073072,31.00296276,-99999.0,'11111222,11111222,99999999' 
TABS,ioos:station:wmo:42045:1,1998-10-20T12:00:00Z,26.2168,-96.4998,2.0,251.9972175,30.99752893,-99999.0,'11111222,11111222,99999999' 
TABS,ioos:station:wmo:42045:1,1998-10-20T12:30:00Z,26.2168,-96.4998,2.0,255.9957912,30.00166162,-99999.0,'11111222,11111222,99999999' 
TABS,ioos:station:wmo:42045:1,1998-10-20T13:00:00Z,26.2168,-96.4998,2.0,258.9998136,24.99928999,-99999.0,'11111222,11111222,99999999' 
TABS,ioos:station:wmo:42045:1,1998-10-20T16:00:00Z,26.2168,-96.4998,2.0,344.9908861,8.996943926,-99999.0,'11133222,11111222,99999999' 
TABS,ioos:station:wmo:42045:1,1998-10-20T16:30:00Z,26.2168,-96.4998,2.0,31.01747528,11.00335403,-99999.0,'11111222,11111222,99999999' 
TABS,ioos:station:wmo:42045:1,1998-10-20T17:00:00Z,26.2168,-96.4998,2.0,42.00698022,13.00021538,-99999.0,'11111222,11111222,99999999' 
TABS,ioos:station:wmo:42045:1,1998-10-20T17:30:00Z,26.2168,-96.4998,2.0,42.00010352,9.99804981,-99999.0,'11133222,11111222,99999999' 
TABS,ioos:station:wmo:42045:1,1998-10-20T18:00:00Z,26.2168,-96.4998,2.0,38.99892398,19.00511773,-99999.0,'11111222,11111222,99999999' 
TABS,ioos:station:wmo:42045:1,1998-10-20T18:30:00Z,26.2168,-96.4998,2.0,46.00315883,21.00429004,-99999.0,'11111222,11111222,99999999' 
TABS,ioos:station:wmo:42045:1,1998-10-20T19:00:00Z,26.2168,-96.4998,2.0,48.00320672,22.00002045,-99999.0,'11111222,11111222,99999999' 
TABS,ioos:station:wmo:42045:1,1998-10-20T19:30:00Z,26.2168,-96.4998,2.0,48.9963792,21.00264031,-99999.0,'11111222,11111222,99999999' 
TABS,ioos:station:wmo:42045:1,1998-10-20T20:00:00Z,26.2168,-96.4998,2.0,37.00584359,26.99807586,-99999.0,'11111222,11111222,99999999' 
TABS,ioos:station:wmo:42045:1,1998-10-20T20:30:00Z,26.2168,-96.4998,2.0,50.99092279,21.00263793,-99999.0,'11111222,11111222,99999999' 
TABS,ioos:station:wmo:42045:1,1998-10-20T21:00:00Z,26.2168,-96.4998,2.0,61.00594565,23.00297589,-99999.0,'11111222,11111222,99999999' 
TABS,ioos:station:wmo:42045:1,1998-10-20T21:30:00Z,26.2168,-96.4998,2.0,0.000210459,5.0,-99999.0,'11133222,11111222,99999999' 
TABS,ioos:station:wmo:42045:1,1998-10-20T22:00:00Z,26.2168,-96.4998,2.0,81.00437809,22.00060226,-99999.0,'11111222,11111222,99999999' 
TABS,ioos:station:wmo:42045:1,1998-10-20T22:30:00Z,26.2168,-96.4998,2.0,63.00789477,20.99726173,-99999.0,'11111222,11111222,99999999' 
TABS,ioos:station:wmo:42045:1,1998-10-20T23:00:00Z,26.2168,-96.4998,2.0,71.99652925,20.99811896,-99999.0,'11111222,11111222,99999999' 
TABS,ioos:station:wmo:42045:1,1998-10-20T23:30:00Z,26.2168,-96.4998,2.0,36.00023602,16.99595834,-99999.0,'11111222,11111222,99999999' 
TABS,ioos:station:wmo:42045:1,1998-10-21T00:00:00Z,26.2168,-96.4998,2.0,77.99331977,19.99747984,-99999.0,'11111222,11111222,99999999' 
TABS,ioos:station:wmo:42045:1,1998-10-21T16:00:00Z,26.2168,-96.4998,2.0,189.0002585,62.00344829,-99999.0,'11111222,11111222,99999999' 
TABS,ioos:station:wmo:42045:1,1998-10-21T16:30:00Z,26.2168,-96.4998,2.0,207.0073871,43.99818633,-99999.0,'11111222,11111222,99999999' 
TABS,ioos:station:wmo:42045:1,1998-10-21T17:00:00Z,26.2168,-96.4998,2.0,267.0014682,39.00338575,-99999.0,'11111222,11111222,99999999' 
TABS,ioos:station:wmo:42045:1,1998-10-21T17:30:00Z,26.2168,-96.4998,2.0,192.0011512,39.00249479,-99999.0,'11111222,11111222,99999999' 
TABS,ioos:station:wmo:42045:1,1998-10-21T18:00:00Z,26.2168,-96.4998,2.0,249.0032503,30.00204326,-99999.0,'11111222,11111222,99999999' 
TABS,ioos:station:wmo:42045:1,1998-10-21T18:30:00Z,26.2168,-96.4998,2.0,244.0088525,29.00325844,-99999.0,'11111222,11111222,99999999' 
TABS,ioos:station:wmo:42045:1,1998-10-21T19:00:00Z,26.2168,-96.4998,2.0,225.9981686,27.99860889,-99999.0,'11111222,11111222,99999999' 